| time (UTC) | temp F | wind direction | speed MPH | gust MPH | rain 1hr in | rain 24hr in | rain mn in | humidity % | barometer mb |
| 20260505011305 | 76 | 113 | 8.0 | 9.0 | 0.00 | 0.00 | 0.00 | 24 | 993.7 |
| 20260505010805 | 76 | 113 | 8.0 | 10.0 | 0.00 | 0.00 | 0.00 | 23 | 993.7 |
| 20260505010305 | 77 | 115 | 7.0 | 8.0 | 0.00 | 0.00 | 0.00 | 23 | 993.7 |
| 20260505010004 | 76 | 118 | 6.0 | 9.0 | 0.00 | 0.00 | 0.00 | 23 | 993.7 |
| 20260505005305 | 78 | 107 | 4.0 | 7.0 | 0.00 | 0.00 | 0.00 | 22 | 993.6 |
| 20260505004805 | 78 | 99 | 4.0 | 8.0 | 0.00 | 0.00 | 0.00 | 22 | 993.8 |
| 20260505004604 | 77 | 106 | 4.0 | 9.0 | 0.00 | 0.00 | 0.00 | 21 | 993.7 |
| 20260505004305 | 78 | 100 | 6.0 | 8.0 | 0.00 | 0.00 | 0.00 | 21 | 993.8 |
| 20260505003805 | 78 | 103 | 7.0 | 9.0 | 0.00 | 0.00 | 0.00 | 21 | 993.8 |
| 20260505003305 | 79 | 114 | 6.0 | 9.0 | 0.00 | 0.00 | 0.00 | 21 | 993.8 |
| 20260505003003 | 78 | 109 | 7.0 | 13.0 | 0.00 | 0.00 | 0.00 | 21 | 993.8 |
| 20260505002305 | 79 | 104 | 8.0 | 13.0 | 0.00 | 0.00 | 0.00 | 20 | 993.8 |
| 20260505001804 | 80 | 100 | 9.0 | 12.0 | 0.00 | 0.00 | 0.00 | 20 | 993.8 |
| 20260505001604 | 79 | 104 | 9.0 | 15.0 | 0.00 | 0.00 | 0.00 | 20 | 993.8 |
| 20260505001305 | 80 | 97 | 11.0 | 15.0 | 0.00 | 0.00 | 0.00 | 20 | 993.8 |
| 20260505000805 | 80 | 97 | 12.0 | 16.0 | 0.00 | 0.00 | 0.00 | 20 | 993.8 |
| 20260505000305 | 80 | 97 | 10.0 | 15.0 | 0.00 | 0.00 | 0.00 | 20 | 993.8 |
| 20260505000110 | 80 | 111 | 10.0 | 17.0 | 0.00 | 0.00 | 0.00 | 20 | 993.8 |
| 20260504235804 | 80 | 97 | 12.0 | 16.0 | 0.00 | 0.00 | 0.00 | 20 | 993.8 |
| 20260504234805 | 80 | 95 | 10.0 | 16.0 | 0.00 | 0.00 | 0.00 | 20 | 994.0 |
| 20260504234504 | 80 | 92 | 12.0 | 17.0 | 0.00 | 0.00 | 0.00 | 20 | 994.0 |
| 20260504234305 | 80 | 95 | 12.0 | 17.0 | 0.00 | 0.00 | 0.00 | 20 | 994.2 |
| 20260504233805 | 80 | 93 | 12.0 | 17.0 | 0.00 | 0.00 | 0.00 | 20 | 994.0 |
| 20260504233104 | 80 | 104 | 11.0 | 18.0 | 0.00 | 0.00 | 0.00 | 21 | 993.7 |
| 20260504232805 | 80 | 97 | 12.0 | 16.0 | 0.00 | 0.00 | 0.00 | 21 | 993.7 |
| 20260504232305 | 81 | 100 | 13.0 | 18.0 | 0.00 | 0.00 | 0.00 | 21 | 993.8 |
| 20260504231805 | 81 | 88 | 14.0 | 20.0 | 0.00 | 0.00 | 0.00 | 20 | 993.7 |
| 20260504231513 | 81 | 91 | 15.0 | 21.0 | 0.00 | 0.00 | 0.00 | 20 | 993.6 |
| 20260504231304 | 81 | 91 | 14.0 | 21.0 | 0.00 | 0.00 | 0.00 | 20 | 993.8 |
| 20260504230804 | 81 | 72 | 13.0 | 17.0 | 0.00 | 0.00 | 0.00 | 20 | 993.7 |
| 20260504230305 | 82 | 79 | 13.0 | 16.0 | 0.00 | 0.00 | 0.00 | 20 | 993.6 |
| 20260504230104 | 81 | 72 | 12.0 | 18.0 | 0.00 | 0.00 | 0.00 | 19 | 993.7 |
| 20260504225805 | 82 | 89 | 10.0 | 18.0 | 0.00 | 0.00 | 0.00 | 18 | 993.7 |
| 20260504225306 | 83 | 100 | 12.0 | 15.0 | 0.00 | 0.00 | 0.00 | 17 | 993.5 |
| 20260504224805 | 83 | 100 | 7.0 | 13.0 | 0.00 | 0.00 | 0.00 | 16 | 993.4 |
| 20260504224502 | 83 | 127 | 9.0 | 13.0 | 0.00 | 0.00 | 0.00 | 17 | 993.5 |
| 20260504224305 | 83 | 105 | 10.0 | 13.0 | 0.00 | 0.00 | 0.00 | 16 | 993.6 |
| 20260504223805 | 84 | 113 | 8.0 | 10.0 | 0.00 | 0.00 | 0.00 | 16 | 993.5 |
| 20260504223103 | 84 | 102 | 7.0 | 11.0 | 0.00 | 0.00 | 0.00 | 16 | 993.5 |
| 20260504222804 | 85 | 112 | 7.0 | 10.0 | 0.00 | 0.00 | 0.00 | 15 | 993.5 |
| 20260504222305 | 85 | 139 | 4.0 | 9.0 | 0.00 | 0.00 | 0.00 | 15 | 993.6 |
| 20260504221505 | 85 | 219 | 2.0 | 5.0 | 0.00 | 0.00 | 0.00 | 15 | 993.6 |
| 20260504221304 | 85 | 199 | 2.0 | 3.0 | 0.00 | 0.00 | 0.00 | 15 | 993.7 |
| 20260504220805 | 86 | 156 | 4.0 | 6.0 | 0.00 | 0.00 | 0.00 | 15 | 993.6 |
| 20260504215805 | 86 | 288 | 6.0 | 12.0 | 0.00 | 0.00 | 0.00 | 15 | 993.7 |
| 20260504215305 | 85 | 277 | 7.0 | 12.0 | 0.00 | 0.00 | 0.00 | 15 | 993.8 |
| 20260504214805 | 86 | 325 | 6.0 | 10.0 | 0.00 | 0.00 | 0.00 | 14 | 993.9 |
| 20260504214502 | 85 | 337 | 4.0 | 8.0 | 0.00 | 0.00 | 0.00 | 14 | 994.0 |
| 20260504214304 | 86 | 326 | 4.0 | 8.0 | 0.00 | 0.00 | 0.00 | 14 | 994.0 |
| 20260504213804 | 86 | 232 | 6.0 | 10.0 | 0.00 | 0.00 | 0.00 | 14 | 994.0 |
| 20260504213104 | 85 | 301 | 2.0 | 8.0 | 0.00 | 0.00 | 0.00 | 15 | 994.0 |
| 20260504212804 | 86 | 34 | 2.0 | 8.0 | 0.00 | 0.00 | 0.00 | 15 | 994.3 |
| 20260504211804 | 85 | 279 | 3.0 | 7.0 | 0.00 | 0.00 | 0.00 | 15 | 994.5 |
| 20260504211511 | 85 | 295 | 3.0 | 7.0 | 0.00 | 0.00 | 0.00 | 14 | 994.5 |
| 20260504211305 | 85 | 20 | 1.0 | 2.0 | 0.00 | 0.00 | 0.00 | 14 | 994.6 |
| 20260504210805 | 85 | 266 | 1.0 | 5.0 | 0.00 | 0.00 | 0.00 | 14 | 994.7 |
| 20260504210304 | 85 | 256 | 2.0 | 3.0 | 0.00 | 0.00 | 0.00 | 14 | 994.7 |
| 20260504210111 | 85 | 231 | 1.0 | 5.0 | 0.00 | 0.00 | 0.00 | 14 | 994.7 |
| 20260504205805 | 85 | 27 | 2.0 | 5.0 | 0.00 | 0.00 | 0.00 | 14 | 994.7 |
| 20260504205305 | 85 | 340 | 2.0 | 5.0 | 0.00 | 0.00 | 0.00 | 14 | 994.8 |
| 20260504204805 | 85 | 334 | 3.0 | 7.0 | 0.00 | 0.00 | 0.00 | 14 | 994.8 |
| 20260504204505 | 84 | 324 | 3.0 | 10.0 | 0.00 | 0.00 | 0.00 | 14 | 994.8 |
| 20260504204304 | 85 | 353 | 5.0 | 10.0 | 0.00 | 0.00 | 0.00 | 14 | 994.9 |
| 20260504203805 | 85 | 328 | 8.0 | 12.0 | 0.00 | 0.00 | 0.00 | 13 | 994.9 |
| 20260504203105 | 85 | 338 | 7.0 | 13.0 | 0.00 | 0.00 | 0.00 | 14 | 995.0 |
| 20260504202805 | 86 | 263 | 3.0 | 7.0 | 0.00 | 0.00 | 0.00 | 14 | 995.0 |
| 20260504201805 | 86 | 276 | 7.0 | 14.0 | 0.00 | 0.00 | 0.00 | 13 | 995.1 |
| 20260504201509 | 86 | 255 | 10.0 | 14.0 | 0.00 | 0.00 | 0.00 | 13 | 995.1 |
| 20260504201305 | 87 | 263 | 8.0 | 12.0 | 0.00 | 0.00 | 0.00 | 13 | 995.1 |
| 20260504200305 | 87 | 272 | 9.0 | 15.0 | 0.00 | 0.00 | 0.00 | 13 | 995.3 |
| 20260504200105 | 87 | 281 | 8.0 | 16.0 | 0.00 | 0.00 | 0.00 | 13 | 995.3 |
| 20260504195805 | 87 | 265 | 8.0 | 13.0 | 0.00 | 0.00 | 0.00 | 13 | 995.4 |
| 20260504195305 | 87 | 298 | 10.0 | 14.0 | 0.00 | 0.00 | 0.00 | 13 | 995.5 |
| 20260504194805 | 88 | 250 | 5.0 | 13.0 | 0.00 | 0.00 | 0.00 | 13 | 995.5 |
| 20260504194503 | 87 | 266 | 2.0 | 14.0 | 0.00 | 0.00 | 0.00 | 13 | 995.5 |
| 20260504194305 | 88 | 246 | 2.0 | 9.0 | 0.00 | 0.00 | 0.00 | 13 | 995.6 |
| 20260504193805 | 88 | 273 | 7.0 | 14.0 | 0.00 | 0.00 | 0.00 | 13 | 995.7 |
| 20260504193104 | 87 | 287 | 9.0 | 15.0 | 0.00 | 0.00 | 0.00 | 13 | 995.7 |
| 20260504192805 | 87 | 306 | 5.0 | 13.0 | 0.00 | 0.00 | 0.00 | 13 | 995.7 |
| 20260504192305 | 87 | 265 | 5.0 | 13.0 | 0.00 | 0.00 | 0.00 | 13 | 995.9 |
| 20260504191804 | 86 | 276 | 8.0 | 12.0 | 0.00 | 0.00 | 0.00 | 14 | 996.0 |
| 20260504191503 | 85 | 249 | 4.0 | 11.0 | 0.00 | 0.00 | 0.00 | 14 | 996.0 |
| 20260504191305 | 86 | 172 | 1.0 | 3.0 | 0.00 | 0.00 | 0.00 | 14 | 996.0 |
| 20260504190804 | 85 | 243 | 2.0 | 7.0 | 0.00 | 0.00 | 0.00 | 14 | 996.1 |
| 20260504190304 | 85 | 270 | 6.0 | 10.0 | 0.00 | 0.00 | 0.00 | 14 | 996.2 |
| 20260504190130 | 85 | 279 | 6.0 | 20.0 | 0.00 | 0.00 | 0.00 | 14 | 996.2 |
| 20260504185805 | 85 | 309 | 9.0 | 20.0 | 0.00 | 0.00 | 0.00 | 14 | 996.3 |
| 20260504184804 | 85 | 93 | 2.0 | 8.0 | 0.00 | 0.00 | 0.00 | 13 | 996.3 |
| 20260504184509 | 85 | 289 | 6.0 | 9.0 | 0.00 | 0.00 | 0.00 | 13 | 996.4 |
| 20260504184305 | 85 | 289 | 5.0 | 9.0 | 0.00 | 0.00 | 0.00 | 14 | 996.4 |
| 20260504183805 | 85 | 338 | 3.0 | 7.0 | 0.00 | 0.00 | 0.00 | 13 | 996.6 |
| 20260504183305 | 85 | 269 | 3.0 | 5.0 | 0.00 | 0.00 | 0.00 | 13 | 996.6 |
| 20260504183103 | 85 | 257 | 2.0 | 13.0 | 0.00 | 0.00 | 0.00 | 13 | 996.7 |
| 20260504181805 | 85 | 284 | 9.0 | 13.0 | 0.00 | 0.00 | 0.00 | 14 | 997.0 |
| 20260504181503 | 84 | 279 | 4.0 | 11.0 | 0.00 | 0.00 | 0.00 | 13 | 997.0 |
| 20260504181305 | 85 | 296 | 5.0 | 10.0 | 0.00 | 0.00 | 0.00 | 13 | 997.1 |
| 20260504180805 | 85 | 274 | 7.0 | 12.0 | 0.00 | 0.00 | 0.00 | 14 | 997.2 |
| 20260504180304 | 84 | 286 | 9.0 | 13.0 | 0.00 | 0.00 | 0.00 | 15 | 997.2 |
| 20260504180210 | 84 | 282 | 7.0 | 13.0 | 0.00 | 0.00 | 0.00 | 15 | 997.3 |
| 20260504175304 | 84 | 304 | 10.0 | 14.0 | 0.00 | 0.00 | 0.00 | 16 | 997.5 |
| 20260504174804 | 83 | 287 | 9.0 | 13.0 | 0.00 | 0.00 | 0.00 | 16 | 997.5 |
| 20260504174502 | 83 | 249 | 9.0 | 18.0 | 0.00 | 0.00 | 0.00 | 16 | 997.5 |
| 20260504174304 | 83 | 267 | 10.0 | 18.0 | 0.00 | 0.00 | 0.00 | 17 | 997.6 |
| 20260504173805 | 82 | 276 | 10.0 | 14.0 | 0.00 | 0.00 | 0.00 | 16 | 997.7 |
| 20260504173304 | 82 | 282 | 11.0 | 14.0 | 0.00 | 0.00 | 0.00 | 16 | 997.7 |
| 20260504173127 | 82 | 275 | 11.0 | 15.0 | 0.00 | 0.00 | 0.00 | 16 | 997.8 |
| 20260504172805 | 82 | 297 | 9.0 | 14.0 | 0.00 | 0.00 | 0.00 | 16 | 997.8 |
| 20260504171805 | 82 | 301 | 10.0 | 16.0 | 0.00 | 0.00 | 0.00 | 17 | 997.9 |
| 20260504171503 | 82 | 324 | 10.0 | 15.0 | 0.00 | 0.00 | 0.00 | 18 | 997.9 |
| 20260504171304 | 82 | 306 | 10.0 | 15.0 | 0.00 | 0.00 | 0.00 | 18 | 998.0 |
| 20260504170805 | 82 | 296 | 11.0 | 15.0 | 0.00 | 0.00 | 0.00 | 19 | 998.0 |
| 20260504170304 | 81 | 290 | 10.0 | 15.0 | 0.00 | 0.00 | 0.00 | 19 | 998.0 |
| 20260504170104 | 81 | 285 | 10.0 | 15.0 | 0.00 | 0.00 | 0.00 | 19 | 998.0 |
| 20260504160304 | 77 | 272 | 10.0 | 13.0 | 0.00 | 0.00 | 0.00 | 25 | 998.7 |
| 20260504150805 | 70 | 290 | 13.0 | 18.0 | 0.00 | 0.00 | 0.00 | 31 | 999.2 |
| 20260504150305 | 69 | 299 | 13.0 | 18.0 | 0.00 | 0.00 | 0.00 | 31 | 999.3 |
| 20260504141305 | 61 | 300 | 13.0 | 17.0 | 0.00 | 0.00 | 0.00 | 45 | 999.7 |
| 20260504140304 | 58 | 303 | 13.0 | 18.0 | 0.00 | 0.00 | 0.00 | 48 | 999.6 |
| 20260504130804 | 47 | 294 | 10.0 | 13.0 | 0.00 | 0.00 | 0.00 | 71 | 999.6 |
| 20260504130305 | 46 | 303 | 8.0 | 12.0 | 0.00 | 0.00 | 0.00 | 72 | 999.6 |
| 20260504120304 | 41 | 4 | 3.0 | 7.0 | 0.00 | 0.00 | 0.00 | 75 | 999.1 |
| 20260504120115 | 41 | 303 | 4.0 | 9.0 | 0.00 | 0.00 | 0.00 | 75 | 999.0 |
| 20260504110103 | 41 | 307 | 3.0 | 8.0 | 0.00 | 0.00 | 0.00 | 72 | 998.5 |
| 20260504100103 | 43 | 4 | 2.0 | 5.0 | 0.00 | 0.00 | 0.00 | 71 | 998.8 |
| 20260504090112 | 43 | 316 | 3.0 | 5.0 | 0.00 | 0.00 | 0.00 | 64 | 998.9 |
| 20260504081804 | 46 | 345 | 2.0 | 3.0 | 0.00 | 0.00 | 0.00 | 60 | 999.2 |
| 20260504081503 | 46 | 323 | 0.0 | 3.0 | 0.00 | 0.00 | 0.00 | 59 | 999.2 |
| 20260504081304 | 47 | 322 | 1.0 | 3.0 | 0.00 | 0.00 | 0.00 | 58 | 999.3 |
| 20260504080804 | 47 | 295 | 2.0 | 3.0 | 0.00 | 0.00 | 0.00 | 57 | 999.3 |
| 20260504080304 | 48 | 306 | 2.0 | 3.0 | 0.00 | 0.00 | 0.00 | 57 | 999.2 |
| 20260504070304 | 53 | 55 | 5.0 | 5.0 | 0.00 | 0.00 | 0.00 | 51 | 999.7 |
| 20260504070104 | 53 | 58 | 3.0 | 6.0 | 0.00 | 0.00 | 0.00 | 51 | 999.7 |
| 20260504050304 | 57 | 69 | 3.0 | 6.0 | 0.00 | 0.00 | 0.00 | 41 | 999.9 |
| 20260504050141 | 57 | 69 | 4.0 | 6.0 | 0.00 | 0.00 | 0.00 | 41 | 999.9 |
| 20260504045804 | 57 | 65 | 3.0 | 5.0 | 0.00 | 0.00 | 0.00 | 41 | 1000.0 |
| 20260504044804 | 58 | 71 | 5.0 | 5.0 | 0.00 | 0.00 | 0.00 | 40 | 1000.0 |
| 20260504044502 | 57 | 73 | 4.0 | 5.0 | 0.00 | 0.00 | 0.00 | 39 | 1000.1 |
| 20260504044304 | 58 | 85 | 3.0 | 5.0 | 0.00 | 0.00 | 0.00 | 39 | 1000.1 |
| 20260504043804 | 58 | 61 | 3.0 | 5.0 | 0.00 | 0.00 | 0.00 | 38 | 1000.2 |
| 20260504043303 | 59 | 60 | 3.0 | 3.0 | 0.00 | 0.00 | 0.00 | 37 | 1000.4 |
| 20260504043103 | 58 | 73 | 3.0 | 4.0 | 0.00 | 0.00 | 0.00 | 37 | 1000.4 |
| 20260504042804 | 59 | 90 | 3.0 | 3.0 | 0.00 | 0.00 | 0.00 | 37 | 1000.4 |
| 20260504042304 | 59 | 112 | 3.0 | 3.0 | 0.00 | 0.00 | 0.00 | 36 | 1000.5 |
| 20260504041804 | 60 | 116 | 3.0 | 3.0 | 0.00 | 0.00 | 0.00 | 36 | 1000.6 |
| 20260504041602 | 59 | 119 | 3.0 | 7.0 | 0.00 | 0.00 | 0.00 | 36 | 1000.6 |
| 20260504041304 | 60 | 114 | 3.0 | 3.0 | 0.00 | 0.00 | 0.00 | 36 | 1000.6 |
| 20260504040804 | 60 | 145 | 6.0 | 9.0 | 0.00 | 0.00 | 0.00 | 36 | 1000.7 |
| 20260504040304 | 60 | 113 | 9.0 | 10.0 | 0.00 | 0.00 | 0.00 | 36 | 1000.6 |
| 20260504040007 | 60 | 112 | 7.0 | 10.0 | 0.00 | 0.00 | 0.00 | 36 | 1000.6 |
| 20260504035804 | 60 | 151 | 7.0 | 10.0 | 0.00 | 0.00 | 0.00 | 36 | 1000.7 |
| 20260504035305 | 60 | 81 | 6.0 | 9.0 | 0.00 | 0.00 | 0.00 | 36 | 1000.4 |
| 20260504034804 | 60 | 78 | 6.0 | 8.0 | 0.00 | 0.00 | 0.00 | 35 | 1000.4 |
| 20260504034606 | 60 | 77 | 5.0 | 7.0 | 0.00 | 0.00 | 0.00 | 35 | 1000.4 |
| 20260504034304 | 60 | 75 | 6.0 | 8.0 | 0.00 | 0.00 | 0.00 | 35 | 1000.4 |
| 20260504033804 | 61 | 59 | 5.0 | 6.0 | 0.00 | 0.00 | 0.00 | 34 | 1000.4 |
| 20260504033002 | 60 | 57 | 5.0 | 9.0 | 0.00 | 0.00 | 0.00 | 33 | 1000.4 |
| 20260504032304 | 61 | 61 | 6.0 | 9.0 | 0.00 | 0.00 | 0.00 | 32 | 1000.4 |
| 20260504031804 | 62 | 56 | 6.0 | 10.0 | 0.00 | 0.00 | 0.00 | 32 | 1000.4 |
| 20260504031629 | 62 | 53 | 7.0 | 10.0 | 0.00 | 0.00 | 0.00 | 32 | 1000.4 |
| 20260504031304 | 62 | 52 | 8.0 | 10.0 | 0.00 | 0.00 | 0.00 | 31 | 1000.3 |
| 20260504030804 | 63 | 47 | 6.0 | 9.0 | 0.00 | 0.00 | 0.00 | 31 | 1000.3 |
| 20260504030304 | 63 | 52 | 6.0 | 9.0 | 0.00 | 0.00 | 0.00 | 30 | 1000.3 |
| 20260504030105 | 62 | 42 | 6.0 | 9.0 | 0.00 | 0.00 | 0.00 | 30 | 1000.3 |
| 20260504025803 | 63 | 45 | 6.0 | 8.0 | 0.00 | 0.00 | 0.00 | 30 | 1000.3 |
| 20260504025304 | 64 | 42 | 6.0 | 9.0 | 0.00 | 0.00 | 0.00 | 29 | 1000.3 |
| 20260504024804 | 64 | 44 | 7.0 | 9.0 | 0.00 | 0.00 | 0.00 | 29 | 1000.3 |
| 20260504024502 | 64 | 39 | 5.0 | 9.0 | 0.00 | 0.00 | 0.00 | 29 | 1000.2 |
| 20260504024303 | 65 | 48 | 7.0 | 9.0 | 0.00 | 0.00 | 0.00 | 28 | 1000.2 |
| 20260504023804 | 65 | 49 | 7.0 | 9.0 | 0.00 | 0.00 | 0.00 | 28 | 1000.2 |
| 20260504023303 | 65 | 48 | 7.0 | 9.0 | 0.00 | 0.00 | 0.00 | 27 | 1000.2 |
| 20260504023102 | 65 | 47 | 6.0 | 9.0 | 0.00 | 0.00 | 0.00 | 27 | 1000.1 |
| 20260504022804 | 66 | 46 | 6.0 | 9.0 | 0.00 | 0.00 | 0.00 | 27 | 1000.1 |
| 20260504022305 | 66 | 51 | 6.0 | 8.0 | 0.00 | 0.00 | 0.00 | 27 | 1000.1 |
| 20260504021803 | 66 | 46 | 7.0 | 9.0 | 0.00 | 0.00 | 0.00 | 26 | 1000.1 |
| 20260504021502 | 66 | 35 | 7.0 | 10.0 | 0.00 | 0.00 | 0.00 | 26 | 1000.2 |
| 20260504021304 | 67 | 41 | 8.0 | 10.0 | 0.00 | 0.00 | 0.00 | 26 | 1000.2 |
| 20260504020804 | 68 | 39 | 8.0 | 12.0 | 0.00 | 0.00 | 0.00 | 26 | 1000.2 |
| 20260504020303 | 69 | 41 | 7.0 | 8.0 | 0.00 | 0.00 | 0.00 | 25 | 1000.2 |
| 20260504020108 | 68 | 34 | 6.0 | 9.0 | 0.00 | 0.00 | 0.00 | 24 | 1000.2 |
| 20260504015305 | 70 | 47 | 6.0 | 8.0 | 0.00 | 0.00 | 0.00 | 23 | 1000.1 |
| 20260504014804 | 71 | 47 | 6.0 | 8.0 | 0.00 | 0.00 | 0.00 | 22 | 1000.0 |
| 20260504014505 | 70 | 48 | 6.0 | 8.0 | 0.00 | 0.00 | 0.00 | 22 | 1000.0 |
| 20260504014305 | 71 | 43 | 6.0 | 8.0 | 0.00 | 0.00 | 0.00 | 22 | 1000.1 |
| 20260504013305 | 74 | 36 | 6.0 | 8.0 | 0.00 | 0.00 | 0.00 | 20 | 1000.0 |
| 20260504013113 | 74 | 35 | 5.0 | 7.0 | 0.00 | 0.00 | 0.00 | 20 | 1000.1 |
| 20260504012805 | 75 | 41 | 6.0 | 8.0 | 0.00 | 0.00 | 0.00 | 19 | 1000.0 |
| 20260504012305 | 76 | 42 | 7.0 | 10.0 | 0.00 | 0.00 | 0.00 | 19 | 1000.0 |
| 20260504011805 | 77 | 38 | 6.0 | 10.0 | 0.00 | 0.00 | 0.00 | 18 | 1000.0 |